This is the latest recevied weather packets stored in our database for station/object KR4BRU. If no packets are shown the sender has not sent any weather packets the latest 10 day(s).
| Time | Temp. | Humidity | Pressure | Rain* | Wind** | Luminosity | Snow |
|---|---|---|---|---|---|---|---|
| 1777936572 | 25° C | 37% | 1009.1 hPa | 0 mm | - | 29 W/m² | - |
| 1777935970 | 25.56° C | 37% | 1009 hPa | 0 mm | - | 33 W/m² | - |
| 1777935367 | 25.56° C | 36% | 1009.1 hPa | 0 mm | - | 35 W/m² | - |
| 1777934766 | 25.56° C | 36% | 1009.2 hPa | 0 mm | - | 39 W/m² | - |
| 1777934166 | 25.56° C | 36% | 1009.1 hPa | 0 mm | - | 40 W/m² | - |
| 1777933565 | 25.56° C | 36% | 1009.1 hPa | 0 mm | - | 44 W/m² | - |
| 1777932959 | 26.11° C | 38% | 1009.1 hPa | 0 mm | - | 58 W/m² | - |
| 1777932358 | 26.11° C | 38% | 1009.1 hPa | 0 mm | - | 72 W/m² | - |
| 1777931757 | 26.11° C | 35% | 1009 hPa | 0 mm | - | 72 W/m² | - |
| 1777931157 | 26.67° C | 36% | 1008.9 hPa | 0 mm | - | 85 W/m² | - |
| 1777930555 | 26.11° C | 35% | 1008.9 hPa | 0 mm | - | 101 W/m² | - |
| 1777929954 | 26.67° C | 34% | 1009.2 hPa | 0 mm | - | 123 W/m² | - |
| 1777929354 | 26.67° C | 34% | 1009.2 hPa | 0 mm | - | 123 W/m² | - |
| 1777928754 | 26.67° C | 35% | 1009.2 hPa | 0 mm | - | 130 W/m² | - |
| 1777928154 | 26.67° C | 35% | 1009.3 hPa | 0 mm | - | 131 W/m² | - |
| 1777927550 | 27.78° C | 33% | 1009.3 hPa | 0 mm | - | 155 W/m² | - |
| 1777926946 | 26.67° C | 34% | 1009.6 hPa | 0 mm | - | 158 W/m² | - |
| 1777926344 | 26.67° C | 34% | 1009.6 hPa | 0 mm | - | 149 W/m² | - |
| 1777925739 | 27.22° C | 32% | 1009.6 hPa | 0 mm | - | 151 W/m² | - |
| 1777925138 | 26.67° C | 34% | 1009.7 hPa | 0 mm | - | 350 W/m² | - |
| 1777924538 | 27.22° C | 33% | 1010 hPa | 0 mm | - | 666 W/m² | - |
| 1777923937 | 27.22° C | 32% | 1010 hPa | 0 mm | - | 650 W/m² | - |
| 1777923335 | 27.78° C | 32% | 1010.4 hPa | 0 mm | - | 740 W/m² | - |
| 1777922731 | 27.78° C | 31% | 1010.3 hPa | 0 mm | - | 760 W/m² | - |
| 1777922127 | 27.22° C | 31% | 1010.8 hPa | 0 mm | - | 797 W/m² | - |
* Rain latest hour (hover to see other rain measurements)
** Current wind speed in m/s (hover to see current wind gust speed)